Location: Bagnolo San Vito
(45.0833°N, 10.8833°E)
Time: 23:51:19
(UTC+00:00)

ARGOS - Pass Details

Date: 03 March 2021
Orbit: 819 x 835 km, 98.4° (Epoch: 17 April)

Event Time Altitude Azimuth Distance (km) Brightness Sun altitude
Rises 17:48:37 0° 153° (SSE) 3,366 6.1 -8.2°
Reaches altitude 10° 17:50:59 10° 150° (SSE) 2,438 5.3 -8.6°
Maximum altitude 17:56:18 60° 72° (ENE) 950 3.2 -9.6°
Drops below altitude 10° 18:01:39 10° 353° (N) 2,458 5.7 -10.5°
Sets 18:04:03 0° 350° (N) 3,396 6.5 -10.9°
